Location: Leiter
(44.7178°N, 106.2687°W)
Time: 10:02:44
(UTC+00:00)

CUBESAT XI-V - Pass Details

Date: 09 July 2022
Orbit: 668 x 690 km, 98.1° (Epoch: 14 August)

Event Time Altitude Azimuth Distance (km) Brightness Sun altitude
Exits shadow 07:45:27 13° 112° (ESE) 1,882 ? -22.5°
Maximum altitude 07:48:24 24° 65° (ENE) 1,388 ? -22.4°
Drops below altitude 10° 07:52:02 10° 12° (NNE) 2,105 ? -22.3°
Sets 07:54:36 0° 359° (N) 3,022 ? -22.2°
